Home > Weather > Hirtshals > Past weeks

Flag for Denmark Weather for the Past 2 Weeks in Hirtshals, Denmark

Now
42 °F

Quite cool.


Feels Like: 42 °F
Forecast: 43 / 57 °F
Wind: 2 mph from South

Location: Aalborg

Current Time: May 5, 2016 at 1:41:20 AM

Latest Report: May 5, 2016 at 1:00 AM


Visibility: 19 mi

Pressure: 30.40 "Hg

Humidity: 87%

Dew Point: 39 °F

Location of HirtshalsLocation

Historic Weather in Hirtshals — Graph

°F

Hirtshals Temperature Yesterday

Maximum temperature yesterday: 58 °F (at 4:00 PM)
Minimum temperature yesterday: 39 °F (at 6:00 AM)
Average temperature yesterday: 50 °F

High & Low Weather Summary for the Past Weeks

 TemperatureHumidityPressure
High62 °F (May 2, 4:00 PM)97% (May 4, 5:00 AM)30.40 "Hg (May 4, 5:00 AM)
Low28 °F (Apr 24, 6:00 AM)31% (Apr 23, 12:00 PM)29.50 "Hg (Apr 25, 7:00 PM)
Average46 °F72%29.96 "Hg
* Reported Apr 19 11:00 PM — May 4 11:00 PM, Hirtshals, Weather by CustomWeather, © 2016

Note: Actual official high and low records may vary slightly from our data, if they occured in-between our weather recording intervals... More about our weather records

Advertising

Hirtshals Weather History for the Previous 24 Hours

Scroll right to see more
 ConditionsComfort  
Time TempWeatherWind HumidityBarometerVisibility
11:00 PM
Wed, May 4
42 °FPassing clouds.3 mph85%30.40 "Hg12 mi
10:00 PM47 °FCool.N/A76%30.39 "Hg22 mi
9:00 PM49 °FCool.2 mph67%30.38 "Hg22 mi
8:00 PM52 °FScattered clouds.6 mph60%30.38 "Hg16 mi
7:00 PM55 °FRefreshingly cool.9 mph58%30.37 "Hg22 mi
6:00 PM58 °FRefreshingly cool.7 mph54%30.37 "Hg22 mi
5:00 PM58 °FPassing clouds.6 mph54%30.37 "Hg16 mi
4:00 PM58 °FRefreshingly cool.7 mph57%30.37 "Hg22 mi
3:00 PM58 °FRefreshingly cool.9 mph49%30.37 "Hg22 mi
2:00 PM57 °FPassing clouds.8 mph47%30.37 "Hg16 mi
1:00 PM56 °FRefreshingly cool.8 mph52%30.37 "Hg19 mi
12:00 PM55 °FCool.9 mph54%N/AN/A
11:00 AM53 °FPassing clouds.8 mph66%30.36 "Hg12 mi
10:00 AM52 °FCool.9 mph75%30.35 "Hg17 mi
9:00 AM49 °FCool.10 mph82%30.34 "Hg17 mi
8:00 AM47 °FPassing clouds.9 mph92%30.33 "Hg9 mi
7:00 AM44 °FQuite cool.6 mph96%30.31 "Hg7 mi
6:00 AM39 °FFog.6 mph97%30.29 "Hg6 mi
5:00 AM39 °FFog.7 mph97%30.27 "Hg6 mi
4:00 AM42 °FQuite cool.6 mph96%30.26 "Hg6 mi
3:00 AM42 °FFog.7 mph96%30.25 "Hg6 mi
1:00 AM44 °FQuite cool.9 mph93%30.23 "Hg9 mi
Weather by CustomWeather, © 2016

See weather overviewHow to use our weather pages